KA5FVT Weather Reports


Display with metric or nautical units.
time (UTC)temp
F
wind
direction
speed
MPH
gust
MPH
rain 1hr
in
rain 24hr
in
rain mn
in
humidity
%
barometer
mb
20260906192456 79 117 0.0 0.0 0.15 0.57 0.00 94 1013.0
20260906191956 79 117 0.0 0.0 0.20 0.57 0.00 94 1013.2
20260906191457 79 117 0.0 0.0 0.26 0.56 0.00 94 1013.3
20260906190957 79 117 0.0 0.0 0.33 0.56 0.00 93 1013.4
20260906190502 79 117 0.0 0.0 0.41 0.55 0.00 93 1013.4
20260906185959 79 117 0.0 0.0 0.52 0.55 0.00 92 1013.5
20260906185502 78 117 0.0 0.0 0.54 0.55 0.00 92 1013.5
20260906184956 78 117 0.0 0.0 0.54 0.54 0.00 91 1013.4
20260906184458 79 117 0.0 0.0 0.53 0.53 0.00 91 1013.4
20260906183959 79 117 0.0 0.0 0.53 0.53 0.00 90 1013.6
20260906183459 79 117 0.0 0.0 0.51 0.51 0.00 89 1013.4
20260906182956 79 117 0.0 0.0 0.47 0.47 0.00 87 1013.5
20260906182500 80 117 0.0 1.0 0.42 0.42 0.00 86 1013.7
20260906182002 81 331 0.0 2.0 0.37 0.37 0.00 87 1013.8
20260906181456 82 329 0.0 0.0 0.29 0.29 0.00 86 1013.9
20260906180957 83 329 0.0 2.0 0.23 0.23 0.00 83 1014.1
20260906180500 84 329 0.0 1.0 0.14 0.14 0.00 82 1014.1
20260906175956 85 327 0.0 0.0 0.03 0.03 0.00 81 1014.0
20260906175502 85 327 0.0 1.0 0.01 0.01 0.00 80 1013.8
20260906174959 86 327 0.0 1.0 0.00 0.00 0.00 80 1013.7
20260906174456 86 327 0.0 2.0 0.00 0.00 0.00 77 1013.6
20260906173957 87 187 0.0 2.0 0.00 0.00 0.00 75 1013.5
20260906173459 87 188 0.0 2.0 0.00 0.00 0.00 72 1013.5
20260906172956 88 315 1.0 2.0 0.00 0.00 0.00 70 1013.6
20260906172456 89 315 1.0 2.0 0.00 0.00 0.00 70 1013.5
20260906171959 91 323 1.0 2.0 0.00 0.00 0.00 67 1013.6
20260906171456 92 330 0.0 2.0 0.00 0.00 0.00 66 1013.7
20260906171000 93 292 1.0 3.0 0.00 0.00 0.00 65 1013.7
20260906170500 93 182 0.0 2.0 0.00 0.00 0.00 62 1013.6
20260906165956 93 182 1.0 2.0 0.00 0.00 0.00 63 1013.6
20260906165456 92 182 0.0 0.0 0.00 0.00 0.00 64 1013.6
20260906164959 92 182 0.0 3.0 0.00 0.00 0.00 67 1013.5
20260906164500 92 171 1.0 4.0 0.00 0.00 0.00 66 1013.6
20260906163959 91 126 0.0 2.0 0.00 0.00 0.00 69 1013.6
20260906163456 91 126 1.0 2.0 0.00 0.00 0.00 70 1013.7
20260906163002 90 128 1.0 2.0 0.00 0.00 0.00 69 1013.6
20260906162456 90 141 1.0 2.0 0.00 0.00 0.00 69 1013.8
20260906161959 89 130 1.0 1.0 0.00 0.00 0.00 72 1013.7
20260906161456 88 132 0.0 2.0 0.00 0.00 0.00 72 1013.8
20260906160956 88 130 0.0 2.0 0.00 0.00 0.00 73 1013.7
20260906160457 88 119 1.0 2.0 0.00 0.00 0.00 75 1013.6
20260906160002 87 111 0.0 1.0 0.00 0.00 0.00 75 1013.8
20260906155459 87 109 1.0 2.0 0.00 0.00 0.00 77 1013.8
20260906154956 87 109 0.0 2.0 0.00 0.00 0.00 79 1013.7
20260906154456 86 105 0.0 1.0 0.00 0.00 0.00 80 1013.8
20260906154002 86 100 0.0 1.0 0.00 0.00 0.00 80 1013.9
20260906153459 86 111 0.0 0.0 0.00 0.00 0.00 80 1013.8
20260906153002 85 179 0.0 0.0 0.00 0.00 0.00 83 1013.7
20260906152457 85 179 0.0 0.0 0.00 0.00 0.00 83 1013.8
20260906151956 85 180 0.0 0.0 0.00 0.00 0.00 83 1013.9
20260906151456 85 180 0.0 0.0 0.00 0.00 0.00 84 1013.8
20260906150956 84 180 0.0 0.0 0.00 0.00 0.00 84 1013.7
20260906150456 84 180 0.0 0.0 0.00 0.00 0.00 85 1013.8
20260906145959 84 180 0.0 0.0 0.00 0.00 0.00 85 1013.7
20260906145457 84 180 0.0 0.0 0.00 0.00 0.00 85 1013.9
20260906144959 84 180 0.0 0.0 0.00 0.00 0.00 86 1013.8
20260906144456 84 180 0.0 0.0 0.00 0.00 0.00 86 1013.8
20260906143956 84 180 0.0 0.0 0.00 0.00 0.00 86 1013.9
20260906143456 84 180 0.0 0.0 0.00 0.00 0.00 87 1013.9
20260906142956 83 180 0.0 0.0 0.00 0.00 0.00 87 1013.9
20260906142503 83 180 0.0 1.0 0.00 0.00 0.00 87 1013.8
20260906141959 83 179 0.0 1.0 0.00 0.00 0.00 87 1013.8
20260906141459 83 180 0.0 0.0 0.00 0.00 0.00 87 1013.7
20260906140956 83 180 0.0 1.0 0.00 0.00 0.00 88 1013.7
20260906140456 82 180 0.0 0.0 0.00 0.00 0.00 88 1013.5
20260906135956 82 180 0.0 1.0 0.00 0.00 0.00 89 1013.6
20260906135459 81 179 0.0 1.0 0.00 0.00 0.00 90 1013.5
20260906134957 81 180 0.0 0.0 0.00 0.00 0.00 91 1013.5
20260906134456 81 180 0.0 0.0 0.00 0.00 0.00 91 1013.6
20260906133956 80 180 0.0 0.0 0.00 0.00 0.00 91 1013.6
20260906133459 80 179 0.0 0.0 0.00 0.00 0.00 92 1013.4
20260906132956 80 179 0.0 0.0 0.00 0.00 0.00 93 1013.4
20260906132456 80 180 0.0 0.0 0.00 0.00 0.00 92 1013.3
20260906131957 80 179 0.0 0.0 0.00 0.00 0.00 92 1013.3
20260906131456 79 179 0.0 0.0 0.00 0.00 0.00 93 1013.2
20260906130959 79 180 0.0 0.0 0.00 0.00 0.00 94 1013.2
20260906130456 79 179 0.0 0.0 0.00 0.00 0.00 94 1013.2
20260906125956 79 179 0.0 0.0 0.00 0.00 0.00 93 1013.1
20260906125456 79 179 0.0 0.0 0.00 0.00 0.00 93 1013.0
20260906124956 79 180 0.0 0.0 0.00 0.00 0.00 93 1012.9
20260906124457 79 179 0.0 0.0 0.00 0.00 0.00 93 1012.8
20260906123956 79 179 0.0 0.0 0.00 0.00 0.00 93 1012.8
20260906123456 79 179 0.0 0.0 0.00 0.00 0.00 93 1012.9
20260906122956 79 180 0.0 0.0 0.00 0.00 0.00 93 1012.9
20260906122457 79 179 0.0 0.0 0.00 0.00 0.00 93 1012.6
20260906121956 79 179 0.0 0.0 0.00 0.00 0.00 93 1012.7
20260906121456 79 180 0.0 0.0 0.00 0.00 0.00 92 1012.5
20260906120959 79 179 0.0 0.0 0.00 0.00 0.00 92 1012.5
20260906120456 79 179 0.0 0.0 0.00 0.00 0.00 92 1012.4
20260906115959 79 179 0.0 0.0 0.00 0.00 0.00 92 1012.3
20260906115502 79 179 0.0 0.0 0.00 0.00 0.00 92 1012.3
20260906114956 79 179 0.0 0.0 0.00 0.00 0.00 92 1012.4
20260906114457 79 180 0.0 0.0 0.00 0.00 0.00 92 1012.3
20260906113959 79 180 0.0 0.0 0.00 0.00 0.00 92 1012.2
20260906113456 79 179 0.0 0.0 0.00 0.00 0.00 92 1012.1
20260906112959 79 180 0.0 0.0 0.00 0.00 0.00 92 1012.2
20260906112456 79 179 0.0 0.0 0.00 0.00 0.00 92 1012.2
20260906111956 79 179 0.0 0.0 0.00 0.00 0.00 92 1012.2
20260906111457 79 179 0.0 0.0 0.00 0.00 0.00 92 1012.2
20260906110956 79 179 0.0 0.0 0.00 0.00 0.00 91 1012.1
20260906110456 79 179 0.0 0.0 0.00 0.00 0.00 91 1012.0
20260906105956 79 179 0.0 0.0 0.00 0.00 0.00 91 1012.0
20260906105456 79 179 0.0 0.0 0.00 0.00 0.00 91 1012.0
20260906105003 79 179 0.0 0.0 0.00 0.00 0.00 91 1012.1
20260906104456 79 179 0.0 0.0 0.00 0.00 0.00 91 1012.1
20260906103956 79 179 0.0 0.0 0.00 0.00 0.00 91 1012.0
20260906103459 79 179 0.0 0.0 0.00 0.00 0.00 91 1011.9
20260906102956 80 179 0.0 0.0 0.00 0.00 0.00 91 1011.9
20260906102456 80 179 0.0 0.0 0.00 0.00 0.00 91 1011.8
20260906101957 80 179 0.0 0.0 0.00 0.00 0.00 91 1011.7
20260906101457 80 179 0.0 0.0 0.00 0.00 0.00 91 1011.7
20260906100959 80 179 0.0 0.0 0.00 0.00 0.00 91 1011.7
20260906100456 80 179 0.0 0.0 0.00 0.00 0.00 90 1011.7
20260906095956 80 179 0.0 0.0 0.00 0.00 0.00 90 1011.7
20260906095456 80 179 0.0 0.0 0.00 0.00 0.00 90 1011.8
20260906094956 80 179 0.0 0.0 0.00 0.00 0.00 90 1011.8
20260906094500 80 179 0.0 0.0 0.00 0.00 0.00 90 1011.9
20260906094002 80 179 0.0 0.0 0.00 0.00 0.00 90 1011.8
20260906093456 80 179 0.0 0.0 0.00 0.00 0.00 91 1011.8
20260906092956 80 179 0.0 0.0 0.00 0.00 0.00 90 1011.7
20260906092456 80 179 0.0 0.0 0.00 0.00 0.00 91 1011.7
20260906091956 80 179 0.0 0.0 0.00 0.00 0.00 90 1011.6
20260906091457 80 179 0.0 0.0 0.00 0.00 0.00 90 1011.7
20260906090956 80 179 0.0 0.0 0.00 0.00 0.00 90 1011.6
20260906090456 80 179 0.0 0.0 0.00 0.00 0.00 90 1011.6
20260906085959 80 179 0.0 0.0 0.00 0.00 0.00 90 1011.6
20260906085456 80 179 0.0 0.0 0.00 0.00 0.00 90 1011.5
20260906084956 80 179 0.0 0.0 0.00 0.00 0.00 90 1011.5
20260906084500 80 179 0.0 0.0 0.00 0.00 0.00 90 1011.4
20260906083956 80 179 0.0 0.0 0.00 0.00 0.00 90 1011.4
20260906083456 80 180 0.0 0.0 0.00 0.00 0.00 90 1011.5
20260906082956 80 179 0.0 0.0 0.00 0.00 0.00 90 1011.7
20260906082459 80 179 0.0 0.0 0.00 0.00 0.00 90 1011.6
20260906081956 80 179 0.0 0.0 0.00 0.00 0.00 90 1011.5
20260906081457 80 179 0.0 0.0 0.00 0.00 0.00 90 1011.5
20260906080959 80 179 0.0 0.0 0.00 0.00 0.00 90 1011.5
20260906080456 80 180 0.0 0.0 0.00 0.00 0.00 90 1011.5
20260906080002 80 179 0.0 0.0 0.00 0.00 0.00 90 1011.6
20260906075456 80 179 0.0 0.0 0.00 0.00 0.00 90 1011.6
20260906074959 80 179 0.0 0.0 0.00 0.00 0.00 90 1011.8
20260906074500 80 179 0.0 0.0 0.00 0.00 0.00 90 1011.8
20260906073959 80 179 0.0 0.0 0.00 0.00 0.00 90 1011.8
20260906073456 80 180 0.0 0.0 0.00 0.00 0.00 90 1011.9
20260906072956 80 179 0.0 0.0 0.00 0.00 0.00 90 1012.0
20260906072456 80 179 0.0 0.0 0.00 0.00 0.00 90 1012.0
20260906071957 80 179 0.0 0.0 0.00 0.00 0.00 90 1012.0
20260906071456 80 179 0.0 0.0 0.00 0.00 0.00 90 1012.0
20260906070959 80 179 0.0 0.0 0.00 0.00 0.00 90 1011.9
20260906070456 80 179 0.0 0.0 0.00 0.00 0.00 90 1011.9
20260906065956 80 179 0.0 0.0 0.00 0.00 0.00 90 1012.0
20260906065459 80 179 0.0 0.0 0.00 0.00 0.00 90 1011.9
20260906064956 80 179 0.0 0.0 0.00 0.00 0.00 90 1011.9
20260906064457 80 179 0.0 0.0 0.00 0.00 0.00 90 1011.9
20260906063956 80 179 0.0 0.0 0.00 0.00 0.00 90 1011.9
20260906063456 80 179 0.0 0.0 0.00 0.00 0.00 90 1012.0
20260906062957 80 180 0.0 0.0 0.00 0.00 0.00 90 1012.1
20260906062456 80 179 0.0 0.0 0.00 0.00 0.00 90 1012.1
20260906061957 80 179 0.0 0.0 0.00 0.00 0.00 90 1012.0
20260906061456 80 179 0.0 0.0 0.00 0.00 0.00 90 1012.1
20260906060956 80 179 0.0 0.0 0.00 0.00 0.00 89 1012.1
20260906060456 80 179 0.0 0.0 0.00 0.00 0.00 89 1012.0
20260906055956 80 179 0.0 0.0 0.00 0.00 0.00 89 1012.1
20260906055456 80 179 0.0 0.0 0.00 0.00 0.00 89 1012.1
20260906054956 80 180 0.0 0.0 0.00 0.00 0.00 89 1012.0
20260906054500 80 179 0.0 0.0 0.00 0.00 0.00 89 1012.1
20260906053956 80 180 0.0 0.0 0.00 0.00 0.00 89 1012.1
20260906053456 80 179 0.0 0.0 0.00 0.00 0.00 89 1012.1
20260906052956 80 180 0.0 0.0 0.00 0.00 0.00 89 1012.1
20260906052456 80 180 0.0 0.0 0.00 0.00 0.00 89 1012.0
20260906051956 80 180 0.0 0.0 0.00 0.00 0.00 89 1012.1
20260906051457 80 179 0.0 0.0 0.00 0.00 0.00 89 1012.1
20260906050956 80 179 0.0 0.0 0.00 0.00 0.00 89 1012.1
20260906050456 80 179 0.0 0.0 0.00 0.00 0.00 88 1012.1
20260906045956 80 179 0.0 0.0 0.00 0.00 0.00 89 1012.1
20260906045456 80 179 0.0 0.0 0.00 0.00 0.00 89 1012.0
20260906044956 80 180 0.0 0.0 0.00 0.00 0.00 88 1012.0
20260906044456 80 179 0.0 0.0 0.00 0.00 0.00 88 1011.9
20260906043957 80 179 0.0 0.0 0.00 0.00 0.00 88 1011.9
20260906043456 80 179 0.0 0.0 0.00 0.00 0.00 88 1012.1
20260906042956 80 179 0.0 0.0 0.00 0.00 0.00 88 1012.2
20260906042456 80 179 0.0 0.0 0.00 0.00 0.00 88 1012.1
20260906041956 80 179 0.0 0.0 0.00 0.00 0.00 88 1012.0
20260906041456 80 179 0.0 0.0 0.00 0.00 0.00 88 1012.1
20260906040957 80 179 0.0 0.0 0.00 0.00 0.00 88 1012.0
20260906040456 80 179 0.0 0.0 0.00 0.00 0.00 88 1012.1
20260906035956 80 180 0.0 0.0 0.00 0.00 0.00 88 1012.3
20260906035456 80 179 0.0 0.0 0.00 0.00 0.00 87 1012.2
20260906034956 80 179 0.0 0.0 0.00 0.00 0.00 87 1012.2
20260906034456 80 179 0.0 0.0 0.00 0.00 0.00 87 1012.3
20260906033957 80 179 0.0 0.0 0.00 0.00 0.00 87 1012.3
20260906033456 80 180 0.0 0.0 0.00 0.00 0.00 87 1012.3
20260906032956 80 179 0.0 0.0 0.00 0.00 0.00 87 1012.2
20260906032456 80 179 0.0 0.0 0.00 0.00 0.00 87 1012.2
20260906031956 80 179 0.0 0.0 0.00 0.00 0.00 87 1012.2
20260906031456 80 179 0.0 0.0 0.00 0.00 0.00 87 1012.1
20260906030957 80 179 0.0 0.0 0.00 0.00 0.00 87 1012.1
20260906030456 80 180 0.0 0.0 0.00 0.00 0.00 87 1012.0
20260906025956 80 179 0.0 0.0 0.00 0.00 0.00 87 1011.9
20260906025456 80 179 0.0 0.0 0.00 0.00 0.00 87 1011.9
20260906024956 80 179 0.0 0.0 0.00 0.00 0.00 87 1011.9
20260906024459 80 179 0.0 0.0 0.00 0.00 0.00 87 1011.9
20260906023957 80 179 0.0 0.0 0.00 0.00 0.00 87 1011.9
20260906023456 81 180 0.0 0.0 0.00 0.00 0.00 87 1011.8
20260906022956 81 179 0.0 0.0 0.00 0.00 0.00 86 1011.7
20260906022456 81 179 0.0 0.0 0.00 0.00 0.00 86 1011.6
20260906021956 81 179 0.0 0.0 0.00 0.00 0.00 87 1011.6
20260906021456 81 179 0.0 1.0 0.00 0.00 0.00 87 1011.6
20260906020957 81 180 0.0 0.0 0.00 0.00 0.00 87 1011.5
20260906020456 81 180 0.0 0.0 0.00 0.00 0.00 87 1011.4
20260906015956 81 180 0.0 2.0 0.00 0.00 0.00 87 1011.3
20260906015456 81 132 0.0 0.0 0.00 0.00 0.00 87 1011.3
20260906014956 81 132 0.0 0.0 0.00 0.00 0.00 87 1011.3
20260906014459 81 132 0.0 0.0 0.00 0.00 0.00 87 1011.2
20260906014000 81 132 0.0 0.0 0.00 0.00 0.00 87 1011.1
20260906013456 81 132 0.0 0.0 0.00 0.00 0.00 87 1011.0
20260906012956 81 132 0.0 0.0 0.00 0.00 0.00 87 1011.0
20260906012456 81 132 0.0 1.0 0.00 0.00 0.00 87 1011.1
20260906011956 81 161 0.0 1.0 0.00 0.00 0.00 87 1011.1
20260906011456 81 161 0.0 0.0 0.00 0.00 0.00 87 1011.0
20260906011000 81 161 0.0 0.0 0.00 0.00 0.00 87 1010.9
20260906010456 81 161 0.0 2.0 0.00 0.00 0.00 87 1010.9
20260906005957 82 306 0.0 1.0 0.00 0.00 0.00 87 1010.9
20260906005456 82 306 0.0 0.0 0.00 0.00 0.00 87 1011.0
20260906004956 82 306 0.0 0.0 0.00 0.00 0.00 87 1011.2
20260906004456 82 306 0.0 0.0 0.00 0.00 0.00 86 1011.3
20260906003957 82 306 0.0 0.0 0.00 0.00 0.00 86 1011.3
20260906003456 82 306 0.0 0.0 0.00 0.00 0.00 85 1011.2
20260906002956 82 306 0.0 0.0 0.00 0.00 0.00 85 1011.3
20260906002456 83 306 0.0 0.0 0.00 0.00 0.00 84 1011.3
20260906001956 83 306 0.0 0.0 0.00 0.00 0.00 83 1011.2
20260906001456 83 306 0.0 0.0 0.00 0.00 0.00 83 1011.4
20260906001000 83 306 0.0 0.0 0.00 0.00 0.00 82 1011.4
20260906000456 84 306 0.0 0.0 0.00 0.00 0.00 80 1011.4
20260905235956 84 306 0.0 1.0 0.00 0.00 0.00 79 1011.5
20260905235456 84 306 1.0 1.0 0.00 0.00 0.00 78 1011.6
20260905234956 85 307 0.0 1.0 0.00 0.00 0.00 76 1011.7
20260905234456 85 307 0.0 2.0 0.00 0.00 0.00 75 1011.7
20260905233959 85 305 0.0 2.0 0.00 0.00 0.00 73 1011.8
20260905233457 85 255 0.0 0.0 0.00 0.00 0.00 73 1011.8
20260905232957 85 256 0.0 0.0 0.00 0.00 0.00 73 1011.8
20260905232457 86 255 0.0 0.0 0.00 0.00 0.00 73 1011.6
20260905231959 86 255 0.0 0.0 0.00 0.00 0.00 72 1011.5
20260905231456 86 255 0.0 0.0 0.00 0.00 0.00 72 1011.5
20260905230959 86 255 0.0 0.0 0.00 0.00 0.00 72 1011.6
20260905230456 86 255 0.0 0.0 0.00 0.00 0.00 72 1011.4
20260905225957 86 255 0.0 0.0 0.00 0.00 0.00 71 1011.3
20260905225459 86 255 0.0 0.0 0.00 0.00 0.00 71 1011.3
20260905224956 86 255 0.0 1.0 0.00 0.00 0.00 70 1011.3
20260905224456 87 255 1.0 1.0 0.00 0.00 0.00 69 1011.4
20260905223959 87 255 0.0 0.0 0.00 0.00 0.00 70 1011.5
20260905223456 87 256 0.0 1.0 0.00 0.00 0.00 69 1011.3
20260905222959 87 255 1.0 2.0 0.00 0.00 0.00 69 1011.3
20260905222456 88 173 2.0 2.0 0.00 0.00 0.00 68 1011.1
20260905221956 88 174 0.0 2.0 0.00 0.00 0.00 68 1011.2
20260905221459 88 173 0.0 2.0 0.00 0.00 0.00 68 1011.1
20260905220956 88 169 0.0 2.0 0.00 0.00 0.00 67 1011.0
20260905220456 88 169 0.0 1.0 0.00 0.00 0.00 68 1011.0
20260905215956 88 169 0.0 1.0 0.00 0.00 0.00 67 1010.9
20260905215456 88 169 0.0 1.0 0.00 0.00 0.00 67 1011.0
20260905214956 88 169 0.0 2.0 0.00 0.00 0.00 67 1010.9
20260905214456 88 169 1.0 2.0 0.00 0.00 0.00 67 1010.7
20260905213956 88 169 1.0 4.0 0.00 0.00 0.00 67 1010.9
20260905213456 89 157 2.0 2.0 0.00 0.00 0.00 67 1010.9
20260905212956 89 151 1.0 2.0 0.00 0.00 0.00 67 1011.0
20260905212500 89 148 1.0 2.0 0.00 0.00 0.00 66 1011.2
20260905211956 90 148 1.0 2.0 0.00 0.00 0.00 66 1011.3
20260905211457 90 148 0.0 2.0 0.00 0.00 0.00 65 1011.2
20260905210959 91 163 2.0 4.0 0.00 0.00 0.00 63 1011.2
20260905210456 92 134 1.0 4.0 0.00 0.00 0.00 62 1011.1
20260905205956 93 162 1.0 2.0 0.00 0.00 0.00 61 1011.2
20260905205459 93 162 0.0 4.0 0.00 0.00 0.00 59 1011.1
20260905204956 94 122 0.0 2.0 0.00 0.00 0.00 58 1011.1
20260905204456 95 190 0.0 1.0 0.00 0.00 0.00 59 1011.0
20260905203957 95 190 0.0 1.0 0.00 0.00 0.00 58 1011.0
20260905203456 95 190 0.0 2.0 0.00 0.00 0.00 57 1011.0
20260905202956 96 190 1.0 2.0 0.00 0.00 0.00 54 1011.2
20260905202459 96 190 0.0 2.0 0.00 0.00 0.00 52 1011.3
20260905202000 96 190 0.0 1.0 0.00 0.00 0.00 53 1011.3
20260905201456 96 190 0.0 1.0 0.00 0.00 0.00 55 1011.3
20260905200956 95 190 0.0 1.0 0.00 0.00 0.00 56 1011.3
20260905200456 95 190 1.0 2.0 0.00 0.00 0.00 54 1011.4
20260905195956 95 190 1.0 2.0 0.00 0.00 0.00 55 1011.5
20260905195456 95 190 0.0 1.0 0.00 0.00 0.00 56 1011.6
20260905194959 95 190 0.0 1.0 0.00 0.00 0.00 56 1011.6
20260905194459 94 190 1.0 2.0 0.00 0.00 0.00 57 1011.6
20260905193959 94 191 0.0 2.0 0.00 0.00 0.00 58 1011.7
20260905193456 94 191 0.0 0.0 0.00 0.00 0.00 60 1011.7
20260905192956 94 191 0.0 0.0 0.00 0.00 0.00 58 1011.8